{"data":{"norad_id":53202,"epoch":"2026-05-25T03:24:51.823008Z","epoch_age_seconds":69583,"freshness":"FRESH","line1":"1 53202U 22084P   26145.14226647 -.00002628  00000+0 -17821-3 0  9999","line2":"2 53202  97.4494 206.2263 0001851  33.8734 326.2611 15.05635097210886","mean_motion":15.05635097,"eccentricity":0.0001851,"inclination_deg":97.4494,"raan_deg":206.2263,"arg_perigee_deg":33.8734,"mean_anomaly_deg":326.2611,"bstar":-0.00017821,"rev_number":21088,"period_min":95.640703572148,"perigee_km":548.27455175622,"apogee_km":550.83918402612,"semimajor_km":6927.6938678912,"source":"CELESTRAK","updated_at":"2026-05-25T13:38:17.351911Z"}}